FW1492 Weather Reports


time (UTC)temp
C
wind
direction
speed
KPH
gust
KPH
rain 1hr
cm
rain 24hr
cm
rain mn
cm
humidity
%
barometer
mb
20260904141554 22 11 4.8 14.5 0.00 0.03 0.03 89 1013.3
20260904140050 22 30 1.6 11.3 0.00 0.03 0.03 90 1013.2
20260904134556 21 28 4.8 17.7 0.00 0.03 0.03 92 1013.2
20260904133048 21 320 1.6 9.7 0.00 0.03 0.03 94 1013.3
20260904131547 21 17 4.8 11.3 0.00 0.03 0.03 96 1013.3
20260904130046 20 327 3.2 14.5 0.00 0.03 0.03 97 1013.3
20260904124547 20 323 3.2 11.3 0.00 0.03 0.03 98 1013.3
20260904123045 20 349 1.6 9.7 0.00 0.03 0.03 99 1013.2
20260904121544 20 347 3.2 11.3 0.00 0.03 0.03 99 1013.4
20260904120043 20 321 1.6 14.5 0.00 0.03 0.03 100 1012.9
20260904114544 20 349 1.6 9.7 0.00 0.03 0.03 100 1013.0
20260904113041 20 23 1.6 8.0 0.00 0.03 0.03 100 1013.0
20260904111542 20 328 1.6 12.9 0.00 0.03 0.03 100 1012.8
20260904110041 20 29 3.2 12.9 0.00 0.03 0.03 100 1012.6
20260904104538 20 328 3.2 6.4 0.00 0.03 0.03 100 1012.7
20260904103036 20 41 3.2 8.0 0.00 0.03 0.03 100 1012.6
20260904101535 20 332 1.6 8.0 0.00 0.03 0.03 100 1012.5
20260904100038 20 79 1.6 6.4 0.00 0.03 0.03 100 1012.4
20260904094542 20 326 3.2 11.3 0.00 0.03 0.03 100 1012.2
20260904093033 20 11 1.6 4.8 0.00 0.03 0.03 100 1012.1
20260904091533 20 27 1.6 6.4 0.00 0.03 0.03 100 1012.0
20260904090031 20 347 1.6 8.0 0.00 0.03 0.03 99 1011.9
20260904084529 20 352 1.6 6.4 0.00 0.05 0.03 99 1012.0
20260904083036 21 359 1.6 6.4 0.00 0.05 0.03 99 1012.0
20260904081527 21 360 0.0 1.6 0.00 0.05 0.03 99 1012.0
20260904080026 21 351 0.0 1.6 0.00 0.05 0.03 99 1011.8
20260904074525 21 349 0.0 1.6 0.00 0.10 0.03 99 1011.5
20260904073026 21 347 0.0 3.2 0.00 0.10 0.03 99 1011.7
20260904071522 21 314 1.6 6.4 0.00 0.10 0.03 98 1011.7
20260904070021 21 331 3.2 8.0 0.00 0.10 0.03 98 1011.7
20260904064519 21 39 0.0 3.2 0.00 0.18 0.03 98 1011.8
20260904063023 21 356 0.0 0.0 0.03 0.18 0.03 98 1011.9
20260904061517 21 356 0.0 0.0 0.03 0.18 0.03 98 1012.3
20260904060013 21 356 0.0 0.0 0.03 0.18 0.03 97 1012.6
20260904054511 22 356 0.0 4.8 0.03 0.25 0.03 97 1012.6
20260904053011 22 4 0.0 4.8 0.00 0.23 0.00 97 1013.0
20260904051508 22 47 0.0 1.6 0.00 0.23 0.00 96 1013.0
20260904050006 22 18 0.0 3.2 0.00 0.23 0.00 95 1012.9
20260904044505 22 24 0.0 1.6 0.00 1.42 0.00 94 1012.7
20260904043103 22 314 0.0 0.0 0.00 1.42 0.00 94 1012.9
20260904041557 22 305 0.0 0.0 0.00 1.42 0.00 93 1013.0
20260904034553 22 307 0.0 1.6 0.00 1.50 1.42 93 1013.5
20260904033049 22 24 0.0 0.0 0.00 1.50 1.42 92 1013.6
20260904031551 22 24 0.0 0.0 0.00 1.50 1.42 92 1013.4
20260904030052 22 23 0.0 0.0 0.00 1.50 1.42 93 1013.2
20260904024549 22 24 0.0 0.0 0.00 1.50 1.42 92 1013.4
20260904023056 22 23 0.0 0.0 0.00 1.50 1.42 92 1013.9
20260904021546 23 24 0.0 0.0 0.00 1.50 1.42 91 1014.0
20260904020046 23 25 0.0 1.6 0.00 1.50 1.42 92 1014.5
20260904014557 23 28 0.0 0.0 0.00 1.50 1.42 91 1014.4
20260904013047 23 27 0.0 1.6 0.00 1.50 1.42 91 1014.4
20260904011543 23 23 0.0 1.6 0.00 1.50 1.42 91 1014.6
20260904010049 23 56 0.0 0.0 0.00 1.50 1.42 91 1014.5
20260904004544 23 56 0.0 0.0 0.00 1.50 1.42 91 1014.3
20260904003041 23 56 0.0 0.0 0.00 1.50 1.42 92 1014.2
20260904001541 23 56 0.0 0.0 0.00 1.50 1.42 92 1014.1
20260904000040 23 56 0.0 0.0 0.00 1.50 1.42 92 1014.1
20260903234539 23 56 0.0 0.0 0.00 1.50 1.42 92 1014.0
20260903233038 23 56 0.0 0.0 0.00 1.50 1.42 91 1013.9
20260903231542 24 55 0.0 0.0 0.00 1.50 1.42 91 1014.0
20260903230041 25 55 0.0 0.0 0.00 1.50 1.42 88 1013.9
20260903224556 25 55 0.0 0.0 0.00 1.50 1.42 87 1013.9
20260903223036 25 55 0.0 0.0 0.00 1.50 1.42 87 1013.9
20260903221536 26 55 0.0 0.0 0.00 1.50 1.42 86 1014.1
20260903220044 26 55 0.0 0.0 0.00 1.50 1.42 84 1013.9
20260903214540 26 55 0.0 0.0 0.00 1.50 1.42 84 1014.0
20260903213039 26 5 0.0 0.0 0.00 1.50 1.42 83 1013.7
20260903211539 27 5 0.0 3.2 0.00 1.50 1.42 81 1013.9
20260903210038 27 59 0.0 3.2 0.00 1.50 1.42 82 1014.0
20260903204529 26 311 0.0 1.6 0.00 1.50 1.42 84 1014.1
20260903203028 26 18 0.0 1.6 0.00 1.50 1.42 85 1014.1
20260903201527 26 56 0.0 3.2 0.00 1.50 1.42 84 1014.1
20260903200028 26 63 0.0 4.8 0.00 1.50 1.42 84 1014.0
20260903194524 26 32 1.6 6.4 0.00 1.50 1.42 83 1014.1
20260903193022 26 354 0.0 4.8 0.00 1.50 1.42 85 1014.3
20260903191519 25 345 1.6 8.0 0.00 1.50 1.42 86 1014.4
20260903190018 25 250 0.0 8.0 0.00 1.50 1.42 86 1014.6
20260903184516 25 75 0.0 6.4 0.00 1.55 1.42 87 1014.7
20260903183014 25 246 0.0 1.6 0.00 1.55 1.42 88 1014.9
20260903181512 25 21 0.0 8.0 0.00 1.55 1.42 88 1014.9
20260903180009 24 53 3.2 8.0 0.00 1.55 1.42 89 1015.1
20260903174507 23 34 0.0 8.0 0.00 1.57 1.42 90 1014.9
20260903173004 23 156 1.6 8.0 0.00 1.57 1.42 92 1015.1
20260903171604 22 44 1.6 12.9 0.00 1.57 1.42 97 1015.5
20260903170058 22 291 0.0 11.3 0.00 1.57 1.42 99 1015.7
20260903164602 22 299 0.0 6.4 0.00 1.57 1.42 100 1015.8
20260903163057 21 274 3.2 8.0 0.00 1.57 1.42 100 1015.9
20260903161553 21 317 0.0 9.7 0.00 1.57 1.42 100 1016.0
20260903160050 20 266 1.6 6.4 0.00 1.57 1.42 100 1016.0
20260903154604 20 255 0.0 3.2 0.00 1.57 1.42 100 1016.3
20260903153043 20 279 0.0 11.3 0.00 1.57 1.42 100 1016.5
20260903151541 20 9 1.6 6.4 0.00 1.57 1.42 100 1016.8
20260903150041 20 266 1.6 6.4 0.00 1.57 1.42 100 1016.8
20260903144539 19 36 1.6 9.7 0.00 1.57 1.42 100 1016.6
20260903143045 19 295 0.0 8.0 0.00 1.57 1.42 100 1016.7